sim
Sign-in with your pilot id or email,
or register
Callsign
Passwort

Schedule Details

Flight Number: EWG4370
Departure: Salzburg Airport (LOWS) at 09:45
Arrival: Fuerteventura Airport (GCFV) at 14:35
Route: Eurowings Passenger Schedule. Enter filed route here before submitting Pirep.

Weather Information
Getting current METAR information for LOWS 182020Z 11005KT 060V130 CAVOK 13/01 Q1024 NOSIG
Getting current METAR information for GCFV 182000Z 36016KT 9999 FEW045 18/11 Q1019

Schedule Frequency

Route Map